Time,TemperatureF,DewpointF,PressureIn,WindDirection,WindDirectionDegrees,WindSpeedMPH,WindSpeedGustMPH,Humidity,HourlyPrecipIn,Conditions,Clouds,dailyrainin,SoftwareType,DateUTC
2013-10-06 00:00:00,68.4,63.4,30.01,SW,230,0.0,0.0,84,0.00,,,0.00,WUHU216DAVISVP2,2013-10-06 04:00:00,
2013-10-06 00:01:00,68.4,63.4,30.01,SW,230,0.0,0.0,84,0.00,,,0.00,WUHU216DAVISVP2,2013-10-06 04:01:00,
2013-10-06 00:06:00,68.8,64.1,30.01,SW,230,0.0,0.0,85,0.00,,,0.00,WUHU216DAVISVP2,2013-10-06 04:06:00,
2013-10-06 00:16:00,68.8,64.1,30.01,SW,230,0.0,0.0,85,0.00,,,0.00,WUHU216DAVISVP2,2013-10-06 04:16:00,
2013-10-06 00:21:00,69.1,64.4,30.01,SW,230,0.0,0.0,85,0.00,,,0.00,WUHU216DAVISVP2,2013-10-06 04:21:00,
2013-10-06 00:26:00,68.9,64.2,30.01,SW,230,0.0,0.0,85,0.00,,,0.00,WUHU216DAVISVP2,2013-10-06 04:26:00,
2013-10-06 00:31:00,68.9,64.2,30.01,SW,230,0.0,0.0,85,0.00,,,0.00,WUHU216DAVISVP2,2013-10-06 04:31:00,
2013-10-06 00:36:00,68.8,64.1,30.01,SW,230,0.0,0.0,85,0.00,,,0.00,WUHU216DAVISVP2,2013-10-06 04:36:00,
2013-10-06 00:41:00,68.8,64.1,30.01,SW,230,0.0,0.0,85,0.00,,,0.00,WUHU216DAVISVP2,2013-10-06 04:41:00,
2013-10-06 00:48:00,68.8,64.1,30.01,SW,230,0.0,0.0,85,0.00,,,0.00,WUHU216DAVISVP2,2013-10-06 04:48:00,
2013-10-06 00:53:00,68.8,64.1,30.01,SW,230,0.0,0.0,85,0.00,,,0.00,WUHU216DAVISVP2,2013-10-06 04:53:00,
2013-10-06 00:58:00,68.8,64.1,30.01,SW,230,0.0,0.0,85,0.00,,,0.00,WUHU216DAVISVP2,2013-10-06 04:58:00,
2013-10-06 01:03:00,68.8,64.1,30.01,SW,230,0.0,0.0,85,0.00,,,0.00,WUHU216DAVISVP2,2013-10-06 05:03:00,
2013-10-06 01:08:00,68.8,64.1,30.01,SW,230,0.0,0.0,85,0.00,,,0.00,WUHU216DAVISVP2,2013-10-06 05:08:00,
2013-10-06 01:13:00,68.8,64.1,30.01,SW,230,0.0,0.0,85,0.00,,,0.00,WUHU216DAVISVP2,2013-10-06 05:13:00,
2013-10-06 01:18:00,68.8,64.1,30.01,SW,230,0.0,0.0,85,0.00,,,0.00,WUHU216DAVISVP2,2013-10-06 05:18:00,
2013-10-06 02:09:00,67.8,63.8,29.99,SW,230,0.0,0.0,87,0.00,,,0.00,WUHU216DAVISVP2,2013-10-06 06:09:00,
2013-10-06 02:14:00,67.8,63.8,29.99,SW,230,0.0,0.0,87,0.00,,,0.00,WUHU216DAVISVP2,2013-10-06 06:14:00,
2013-10-06 02:19:00,67.6,63.6,29.99,SW,230,0.0,0.0,87,0.00,,,0.00,WUHU216DAVISVP2,2013-10-06 06:19:00,
2013-10-06 02:24:00,67.6,63.6,30.00,SW,230,0.0,0.0,87,0.00,,,0.00,WUHU216DAVISVP2,2013-10-06 06:24:00,
2013-10-06 02:29:00,67.6,63.6,30.00,SW,230,0.0,0.0,87,0.00,,,0.00,WUHU216DAVISVP2,2013-10-06 06:29:00,
2013-10-06 02:34:00,67.6,63.9,30.00,SW,230,0.0,0.0,88,0.00,,,0.00,WUHU216DAVISVP2,2013-10-06 06:34:00,
2013-10-06 02:39:00,67.8,64.1,30.00,SW,230,0.0,0.0,88,0.00,,,0.00,WUHU216DAVISVP2,2013-10-06 06:39:00,
2013-10-06 02:44:00,67.6,63.9,30.00,SW,230,0.0,0.0,88,0.00,,,0.00,WUHU216DAVISVP2,2013-10-06 06:44:00,
2013-10-06 02:49:00,67.8,64.1,30.00,SW,230,0.0,0.0,88,0.00,,,0.00,WUHU216DAVISVP2,2013-10-06 06:49:00,
2013-10-06 02:54:00,67.8,64.1,29.99,SW,230,0.0,0.0,88,0.00,,,0.00,WUHU216DAVISVP2,2013-10-06 06:54:00,
2013-10-06 02:59:00,67.6,63.9,29.99,SW,230,0.0,0.0,88,0.00,,,0.00,WUHU216DAVISVP2,2013-10-06 06:59:00,
2013-10-06 03:04:00,67.3,63.6,29.99,SW,230,0.0,0.0,88,0.00,,,0.00,WUHU216DAVISVP2,2013-10-06 07:04:00,
2013-10-06 03:09:00,67.4,63.7,29.99,SW,230,0.0,0.0,88,0.00,,,0.00,WUHU216DAVISVP2,2013-10-06 07:09:00,
2013-10-06 03:14:00,67.3,63.6,29.99,SW,230,0.0,0.0,88,0.00,,,0.00,WUHU216DAVISVP2,2013-10-06 07:14:00,
2013-10-06 03:19:00,67.3,63.6,29.99,SW,230,0.0,0.0,88,0.00,,,0.00,WUHU216DAVISVP2,2013-10-06 07:19:00,
2013-10-06 03:24:00,67.4,63.7,29.98,SW,230,0.0,0.0,88,0.00,,,0.00,WUHU216DAVISVP2,2013-10-06 07:24:00,
2013-10-06 03:29:00,67.4,63.7,29.98,SW,230,0.0,0.0,88,0.00,,,0.00,WUHU216DAVISVP2,2013-10-06 07:29:00,
2013-10-06 03:34:00,67.1,63.4,29.98,SW,230,0.0,0.0,88,0.00,,,0.00,WUHU216DAVISVP2,2013-10-06 07:34:00,
2013-10-06 03:39:00,66.9,63.2,29.99,SW,230,0.0,0.0,88,0.00,,,0.00,WUHU216DAVISVP2,2013-10-06 07:39:00,
2013-10-06 03:44:00,66.9,63.2,29.99,SW,230,0.0,0.0,88,0.00,,,0.00,WUHU216DAVISVP2,2013-10-06 07:44:00,
2013-10-06 03:49:00,66.9,63.2,29.99,SW,230,0.0,0.0,88,0.00,,,0.00,WUHU216DAVISVP2,2013-10-06 07:49:00,
2013-10-06 03:54:00,66.6,62.9,29.99,SW,230,0.0,0.0,88,0.00,,,0.00,WUHU216DAVISVP2,2013-10-06 07:54:00,
2013-10-06 03:59:00,66.6,62.9,29.99,SW,230,0.0,0.0,88,0.00,,,0.00,WUHU216DAVISVP2,2013-10-06 07:59:00,
2013-10-06 04:04:00,66.6,62.9,29.99,SW,230,0.0,0.0,88,0.00,,,0.00,WUHU216DAVISVP2,2013-10-06 08:04:00,
2013-10-06 04:09:00,66.3,62.6,29.99,SW,230,0.0,0.0,88,0.00,,,0.00,WUHU216DAVISVP2,2013-10-06 08:09:00,
2013-10-06 04:14:00,66.3,62.6,29.99,SW,230,0.0,0.0,88,0.00,,,0.00,WUHU216DAVISVP2,2013-10-06 08:14:00,
2013-10-06 04:19:00,66.3,62.9,29.99,SW,230,0.0,0.0,89,0.00,,,0.00,WUHU216DAVISVP2,2013-10-06 08:19:00,
2013-10-06 04:24:00,66.6,63.3,29.99,SW,230,0.0,0.0,89,0.00,,,0.00,WUHU216DAVISVP2,2013-10-06 08:24:00,
2013-10-06 04:29:00,66.6,63.3,29.99,SW,230,0.0,0.0,89,0.00,,,0.00,WUHU216DAVISVP2,2013-10-06 08:29:00,
2013-10-06 04:34:00,66.6,63.3,29.99,SW,230,0.0,0.0,89,0.00,,,0.00,WUHU216DAVISVP2,2013-10-06 08:34:00,
2013-10-06 04:39:00,66.6,63.2,29.99,SW,230,0.0,0.0,89,0.00,,,0.00,WUHU216DAVISVP2,2013-10-06 08:39:00,
2013-10-06 04:44:00,66.6,63.2,29.99,SW,230,0.0,0.0,89,0.00,,,0.00,WUHU216DAVISVP2,2013-10-06 08:44:00,
2013-10-06 04:49:00,66.4,63.0,29.99,SW,230,0.0,0.0,89,0.00,,,0.00,WUHU216DAVISVP2,2013-10-06 08:49:00,
2013-10-06 04:54:00,66.4,63.0,29.99,SW,230,0.0,0.0,89,0.00,,,0.00,WUHU216DAVISVP2,2013-10-06 08:54:00,
2013-10-06 04:59:00,66.3,62.9,29.99,SW,230,0.0,0.0,89,0.00,,,0.00,WUHU216DAVISVP2,2013-10-06 08:59:00,
2013-10-06 05:04:00,66.1,62.7,29.99,SW,230,0.0,0.0,89,0.00,,,0.00,WUHU216DAVISVP2,2013-10-06 09:04:00,
2013-10-06 05:09:00,66.0,62.6,30.00,SW,230,0.0,0.0,89,0.00,,,0.00,WUHU216DAVISVP2,2013-10-06 09:09:00,
2013-10-06 05:14:00,66.0,62.6,30.00,SW,230,0.0,0.0,89,0.00,,,0.00,WUHU216DAVISVP2,2013-10-06 09:14:00,
2013-10-06 05:19:00,66.0,62.6,30.00,SW,230,0.0,0.0,89,0.00,,,0.00,WUHU216DAVISVP2,2013-10-06 09:19:00,
2013-10-06 05:24:00,66.0,62.6,30.00,SW,230,0.0,0.0,89,0.00,,,0.00,WUHU216DAVISVP2,2013-10-06 09:24:00,
2013-10-06 05:29:00,66.0,62.6,30.00,SW,230,0.0,0.0,89,0.00,,,0.00,WUHU216DAVISVP2,2013-10-06 09:29:00,
2013-10-06 05:34:00,66.0,62.6,30.00,SW,230,0.0,0.0,89,0.00,,,0.00,WUHU216DAVISVP2,2013-10-06 09:34:00,
2013-10-06 05:39:00,66.0,62.7,30.00,SW,230,0.0,0.0,89,0.00,,,0.00,WUHU216DAVISVP2,2013-10-06 09:39:00,
2013-10-06 05:44:00,65.8,62.5,30.00,SW,230,0.0,0.0,89,0.00,,,0.00,WUHU216DAVISVP2,2013-10-06 09:44:00,
2013-10-06 05:49:00,65.6,62.3,30.00,SW,230,0.0,0.0,89,0.00,,,0.00,WUHU216DAVISVP2,2013-10-06 09:49:00,
2013-10-06 05:54:00,65.6,62.3,30.00,SW,230,0.0,0.0,89,0.00,,,0.00,WUHU216DAVISVP2,2013-10-06 09:54:00,
2013-10-06 05:59:00,65.6,62.6,30.00,SW,230,0.0,0.0,90,0.00,,,0.00,WUHU216DAVISVP2,2013-10-06 09:59:00,
2013-10-06 06:04:00,65.8,62.8,30.00,SW,230,0.0,0.0,90,0.00,,,0.00,WUHU216DAVISVP2,2013-10-06 10:04:00,
2013-10-06 06:09:00,65.6,62.3,30.00,SW,230,0.0,0.0,89,0.00,,,0.00,WUHU216DAVISVP2,2013-10-06 10:09:00,
2013-10-06 06:14:00,65.5,62.2,30.00,SW,230,0.0,0.0,89,0.00,,,0.00,WUHU216DAVISVP2,2013-10-06 10:14:00,
2013-10-06 06:19:00,65.5,62.2,30.00,SW,230,0.0,0.0,89,0.00,,,0.00,WUHU216DAVISVP2,2013-10-06 10:19:00,
2013-10-06 06:24:00,65.2,61.9,30.00,SW,230,0.0,0.0,89,0.00,,,0.00,WUHU216DAVISVP2,2013-10-06 10:24:00,
2013-10-06 06:29:00,65.2,61.9,30.00,SW,230,0.0,0.0,89,0.00,,,0.00,WUHU216DAVISVP2,2013-10-06 10:29:00,
2013-10-06 06:34:00,65.0,61.7,30.00,SW,230,0.0,0.0,89,0.00,,,0.00,WUHU216DAVISVP2,2013-10-06 10:34:00,
2013-10-06 06:39:00,64.8,61.5,30.00,SW,230,0.0,0.0,89,0.00,,,0.00,WUHU216DAVISVP2,2013-10-06 10:39:00,
2013-10-06 06:44:00,64.7,61.4,30.00,SW,230,0.0,0.0,89,0.00,,,0.00,WUHU216DAVISVP2,2013-10-06 10:44:00,
2013-10-06 06:49:00,64.5,61.2,30.00,SW,230,0.0,0.0,89,0.00,,,0.00,WUHU216DAVISVP2,2013-10-06 10:49:00,
2013-10-06 06:54:00,64.5,61.2,30.00,SW,230,0.0,0.0,89,0.00,,,0.00,WUHU216DAVISVP2,2013-10-06 10:54:00,
2013-10-06 06:59:00,64.3,61.0,30.00,SW,230,0.0,0.0,89,0.00,,,0.00,WUHU216DAVISVP2,2013-10-06 10:59:00,
2013-10-06 07:04:00,64.3,61.0,30.00,SW,230,0.0,0.0,89,0.00,,,0.00,WUHU216DAVISVP2,2013-10-06 11:04:00,
2013-10-06 07:09:00,64.3,61.3,30.00,SW,230,0.0,0.0,90,0.00,,,0.00,WUHU216DAVISVP2,2013-10-06 11:09:00,
2013-10-06 07:14:00,64.3,61.3,30.00,SW,230,0.0,0.0,90,0.00,,,0.00,WUHU216DAVISVP2,2013-10-06 11:14:00,
2013-10-06 07:19:00,64.3,61.3,30.00,SW,230,0.0,0.0,90,0.00,,,0.00,WUHU216DAVISVP2,2013-10-06 11:19:00,
2013-10-06 07:24:00,64.5,61.5,30.01,SW,230,0.0,0.0,90,0.00,,,0.00,WUHU216DAVISVP2,2013-10-06 11:24:00,
2013-10-06 07:29:00,64.5,61.5,30.01,SW,230,0.0,0.0,90,0.00,,,0.00,WUHU216DAVISVP2,2013-10-06 11:29:00,
2013-10-06 07:34:00,64.3,61.3,30.01,SW,230,0.0,0.0,90,0.00,,,0.00,WUHU216DAVISVP2,2013-10-06 11:34:00,
2013-10-06 07:40:00,64.5,61.5,30.01,SW,230,0.0,0.0,90,0.00,,,0.00,WUHU216DAVISVP2,2013-10-06 11:40:00,
2013-10-06 07:45:00,64.5,61.5,30.01,SW,230,0.0,0.0,90,0.00,,,0.00,WUHU216DAVISVP2,2013-10-06 11:45:00,
2013-10-06 07:50:00,64.7,61.7,30.01,SW,230,0.0,0.0,90,0.00,,,0.00,WUHU216DAVISVP2,2013-10-06 11:50:00,
2013-10-06 07:55:00,65.0,62.0,30.01,SW,230,0.0,0.0,90,0.00,,,0.00,WUHU216DAVISVP2,2013-10-06 11:55:00,
2013-10-06 08:00:00,65.2,62.2,30.01,SW,230,0.0,0.0,90,0.00,,,0.00,WUHU216DAVISVP2,2013-10-06 12:00:00,
2013-10-06 08:05:00,65.6,62.6,30.01,SW,230,0.0,0.0,90,0.00,,,0.00,WUHU216DAVISVP2,2013-10-06 12:05:00,
2013-10-06 08:10:00,66.1,63.1,30.02,SW,230,0.0,0.0,90,0.00,,,0.00,WUHU216DAVISVP2,2013-10-06 12:10:00,
2013-10-06 08:15:00,66.4,63.4,30.02,SW,230,0.0,0.0,90,0.00,,,0.00,WUHU216DAVISVP2,2013-10-06 12:15:00,
2013-10-06 08:20:00,66.6,63.6,30.02,SW,230,0.0,0.0,90,0.00,,,0.00,WUHU216DAVISVP2,2013-10-06 12:20:00,
2013-10-06 08:25:00,67.1,64.1,30.02,SW,230,0.0,0.0,90,0.00,,,0.00,WUHU216DAVISVP2,2013-10-06 12:25:00,
2013-10-06 08:30:00,67.4,64.4,30.02,SW,230,0.0,0.0,90,0.00,,,0.00,WUHU216DAVISVP2,2013-10-06 12:30:00,
2013-10-06 08:35:00,68.1,65.0,30.02,SW,230,0.0,0.0,90,0.00,,,0.00,WUHU216DAVISVP2,2013-10-06 12:35:00,
2013-10-06 08:40:00,68.4,65.6,30.02,SW,230,0.0,0.0,91,0.00,,,0.00,WUHU216DAVISVP2,2013-10-06 12:40:00,
2013-10-06 08:45:00,69.3,66.2,30.02,SW,230,0.0,0.0,90,0.00,,,0.00,WUHU216DAVISVP2,2013-10-06 12:45:00,
2013-10-06 08:50:00,69.9,67.1,30.02,SW,230,0.0,0.0,91,0.00,,,0.00,WUHU216DAVISVP2,2013-10-06 12:50:00,
2013-10-06 08:55:00,70.4,67.6,30.02,SW,230,0.0,0.0,91,0.00,,,0.00,WUHU216DAVISVP2,2013-10-06 12:55:00,
2013-10-06 09:00:00,71.1,68.3,30.02,SW,230,0.0,0.0,91,0.00,,,0.00,WUHU216DAVISVP2,2013-10-06 13:00:00,
2013-10-06 09:05:00,71.8,69.0,30.02,SW,230,0.0,0.0,91,0.00,,,0.00,WUHU216DAVISVP2,2013-10-06 13:05:00,
2013-10-06 09:10:00,72.0,69.2,30.02,SW,230,0.0,0.0,91,0.00,,,0.00,WUHU216DAVISVP2,2013-10-06 13:10:00,
2013-10-06 09:15:00,72.5,69.7,30.02,SW,230,0.0,0.0,91,0.00,,,0.00,WUHU216DAVISVP2,2013-10-06 13:15:00,
2013-10-06 09:20:00,73.3,70.2,30.02,SW,230,0.0,0.0,90,0.00,,,0.00,WUHU216DAVISVP2,2013-10-06 13:20:00,
2013-10-06 09:25:00,73.5,70.4,30.02,SW,230,0.0,0.0,90,0.00,,,0.00,WUHU216DAVISVP2,2013-10-06 13:25:00,
2013-10-06 09:30:00,74.0,70.9,30.02,SW,230,0.0,0.0,90,0.00,,,0.00,WUHU216DAVISVP2,2013-10-06 13:30:00,
2013-10-06 09:35:00,74.2,71.1,30.02,SW,230,0.0,0.0,90,0.00,,,0.00,WUHU216DAVISVP2,2013-10-06 13:35:00,
2013-10-06 09:40:00,74.2,71.1,30.03,SW,229,0.0,0.0,90,0.00,,,0.00,WUHU216DAVISVP2,2013-10-06 13:40:00,
2013-10-06 09:45:00,74.6,71.1,30.03,ESE,109,0.0,0.0,89,0.00,,,0.00,WUHU216DAVISVP2,2013-10-06 13:45:00,
2013-10-06 09:50:00,74.4,70.9,30.03,ESE,103,0.0,0.0,89,0.00,,,0.00,WUHU216DAVISVP2,2013-10-06 13:50:00,
2013-10-06 09:55:00,74.6,70.8,30.03,ESE,103,0.0,0.0,88,0.00,,,0.00,WUHU216DAVISVP2,2013-10-06 13:55:00,
2013-10-06 10:00:00,74.9,70.8,30.03,ESE,103,0.0,0.0,87,0.00,,,0.00,WUHU216DAVISVP2,2013-10-06 14:00:00,
2013-10-06 10:05:00,74.7,70.6,30.03,ENE,71,0.0,0.0,87,0.00,,,0.00,WUHU216DAVISVP2,2013-10-06 14:05:00,
2013-10-06 10:10:00,74.9,70.5,30.03,WNW,288,0.0,0.0,86,0.00,,,0.00,WUHU216DAVISVP2,2013-10-06 14:10:00,
2013-10-06 10:15:00,75.1,70.3,30.03,WNW,289,0.0,0.0,85,0.00,,,0.00,WUHU216DAVISVP2,2013-10-06 14:15:00,
2013-10-06 10:20:00,75.8,71.0,30.03,WNW,289,0.0,0.0,85,0.00,,,0.00,WUHU216DAVISVP2,2013-10-06 14:20:00,
2013-10-06 10:25:00,76.1,71.3,30.03,WNW,289,0.0,0.0,85,0.00,,,0.00,WUHU216DAVISVP2,2013-10-06 14:25:00,
2013-10-06 10:30:00,76.3,70.8,30.03,WNW,302,0.0,0.0,83,0.00,,,0.00,WUHU216DAVISVP2,2013-10-06 14:30:00,
2013-10-06 10:35:00,76.3,70.8,30.03,WNW,294,0.0,0.0,83,0.00,,,0.00,WUHU216DAVISVP2,2013-10-06 14:35:00,
2013-10-06 10:40:00,76.7,70.9,30.03,East,100,0.0,0.0,82,0.00,,,0.00,WUHU216DAVISVP2,2013-10-06 14:40:00,
2013-10-06 10:45:00,76.8,70.6,30.03,ESE,121,0.0,0.0,81,0.00,,,0.00,WUHU216DAVISVP2,2013-10-06 14:45:00,
2013-10-06 10:50:00,77.2,71.0,30.03,NE,35,0.0,0.0,81,0.00,,,0.00,WUHU216DAVISVP2,2013-10-06 14:50:00,
2013-10-06 10:55:00,77.2,70.7,30.02,WNW,302,0.0,0.0,80,0.00,,,0.00,WUHU216DAVISVP2,2013-10-06 14:55:00,
2013-10-06 11:00:00,77.6,70.7,30.02,NE,54,0.0,0.0,79,0.00,,,0.00,WUHU216DAVISVP2,2013-10-06 15:00:00,
2013-10-06 11:06:00,77.9,71.0,30.02,NNE,28,0.0,0.0,79,0.00,,,0.00,WUHU216DAVISVP2,2013-10-06 15:06:00,
2013-10-06 11:11:00,78.1,71.2,30.02,NNW,344,0.0,0.0,79,0.00,,,0.00,WUHU216DAVISVP2,2013-10-06 15:11:00,
2013-10-06 11:16:00,77.9,70.6,30.02,WSW,250,0.0,0.0,78,0.00,,,0.00,WUHU216DAVISVP2,2013-10-06 15:16:00,
2013-10-06 11:21:00,78.1,70.7,30.02,ESE,104,0.0,0.0,78,0.00,,,0.00,WUHU216DAVISVP2,2013-10-06 15:21:00,
2013-10-06 11:26:00,78.8,71.5,30.02,East,80,0.0,0.0,78,0.00,,,0.00,WUHU216DAVISVP2,2013-10-06 15:26:00,
2013-10-06 11:31:00,79.0,71.3,30.02,NE,48,0.0,0.0,77,0.00,,,0.00,WUHU216DAVISVP2,2013-10-06 15:31:00,
2013-10-06 11:36:00,79.2,71.5,30.02,NE,49,0.0,0.0,77,0.00,,,0.00,WUHU216DAVISVP2,2013-10-06 15:36:00,
2013-10-06 11:41:00,79.2,71.4,30.01,ENE,69,0.0,0.0,77,0.00,,,0.00,WUHU216DAVISVP2,2013-10-06 15:41:00,
2013-10-06 11:46:00,79.6,71.5,30.01,ENE,69,0.0,0.0,76,0.00,,,0.00,WUHU216DAVISVP2,2013-10-06 15:46:00,
2013-10-06 11:51:00,79.8,71.7,30.01,ENE,65,0.0,0.0,76,0.00,,,0.00,WUHU216DAVISVP2,2013-10-06 15:51:00,
2013-10-06 11:56:00,79.2,70.8,30.01,ENE,64,0.0,0.0,75,0.00,,,0.00,WUHU216DAVISVP2,2013-10-06 15:56:00,
2013-10-06 12:01:00,79.4,71.0,30.01,ENE,64,0.0,0.0,75,0.00,,,0.00,WUHU216DAVISVP2,2013-10-06 16:01:00,
2013-10-06 12:06:00,79.4,71.0,30.01,WSW,248,0.0,0.0,75,0.00,,,0.00,WUHU216DAVISVP2,2013-10-06 16:06:00,
2013-10-06 12:11:00,79.8,71.0,30.00,NE,37,0.0,0.0,74,0.00,,,0.00,WUHU216DAVISVP2,2013-10-06 16:11:00,
2013-10-06 12:16:00,79.8,70.8,30.00,East,88,0.0,0.0,74,0.00,,,0.00,WUHU216DAVISVP2,2013-10-06 16:16:00,
2013-10-06 12:21:00,79.9,71.1,30.00,SE,124,0.0,0.0,74,0.00,,,0.00,WUHU216DAVISVP2,2013-10-06 16:21:00,
2013-10-06 12:26:00,80.3,70.9,30.00,East,100,0.0,0.0,73,0.00,,,0.00,WUHU216DAVISVP2,2013-10-06 16:26:00,
2013-10-06 12:31:00,80.5,71.6,30.00,SSW,193,0.0,0.0,74,0.00,,,0.00,WUHU216DAVISVP2,2013-10-06 16:31:00,
2013-10-06 12:36:00,81.1,71.8,30.00,SW,217,0.0,0.0,73,0.00,,,0.00,WUHU216DAVISVP2,2013-10-06 16:36:00,
2013-10-06 12:41:00,81.1,71.4,29.99,NW,326,0.0,0.0,72,0.00,,,0.00,WUHU216DAVISVP2,2013-10-06 16:41:00,
2013-10-06 12:46:00,81.4,71.3,29.99,ENE,66,0.0,0.0,71,0.00,,,0.00,WUHU216DAVISVP2,2013-10-06 16:46:00,
2013-10-06 12:51:00,81.4,71.3,29.99,WNW,294,0.0,0.0,71,0.00,,,0.00,WUHU216DAVISVP2,2013-10-06 16:51:00,
2013-10-06 12:56:00,81.4,71.1,29.98,West,270,0.0,0.0,71,0.00,,,0.00,WUHU216DAVISVP2,2013-10-06 16:56:00,
2013-10-06 13:01:00,81.1,71.4,29.98,NE,49,0.0,0.0,72,0.00,,,0.00,WUHU216DAVISVP2,2013-10-06 17:01:00,
2013-10-06 13:06:00,80.9,70.8,29.98,SSW,213,0.0,0.0,71,0.00,,,0.00,WUHU216DAVISVP2,2013-10-06 17:06:00,
2013-10-06 13:11:00,80.9,70.8,29.98,South,188,0.0,0.0,71,0.00,,,0.00,WUHU216DAVISVP2,2013-10-06 17:11:00,
2013-10-06 13:16:00,81.1,71.0,29.98,East,95,0.0,0.0,71,0.00,,,0.00,WUHU216DAVISVP2,2013-10-06 17:16:00,
2013-10-06 13:21:00,80.7,70.6,29.98,North,7,0.0,0.0,71,0.00,,,0.00,WUHU216DAVISVP2,2013-10-06 17:21:00,
2013-10-06 13:26:00,80.7,71.0,29.97,West,261,0.0,0.0,72,0.00,,,0.00,WUHU216DAVISVP2,2013-10-06 17:26:00,
2013-10-06 13:31:00,80.5,70.4,29.97,West,261,0.0,0.0,71,0.00,,,0.00,WUHU216DAVISVP2,2013-10-06 17:31:00,
2013-10-06 13:36:00,80.9,71.2,29.97,NE,34,0.0,0.0,72,0.00,,,0.00,WUHU216DAVISVP2,2013-10-06 17:36:00,
2013-10-06 13:41:00,80.5,70.0,29.97,NE,34,0.0,0.0,70,0.00,,,0.00,WUHU216DAVISVP2,2013-10-06 17:41:00,
2013-10-06 13:46:00,80.5,70.9,29.97,NW,323,0.0,0.0,72,0.00,,,0.00,WUHU216DAVISVP2,2013-10-06 17:46:00,
2013-10-06 13:51:00,80.5,70.9,29.97,North,352,0.0,0.0,72,0.00,,,0.00,WUHU216DAVISVP2,2013-10-06 17:51:00,
2013-10-06 13:56:00,80.3,69.8,29.96,WNW,299,0.0,0.0,70,0.00,,,0.00,WUHU216DAVISVP2,2013-10-06 17:56:00,
2013-10-06 14:01:00,80.1,70.1,29.96,WNW,294,0.0,0.0,71,0.00,,,0.00,WUHU216DAVISVP2,2013-10-06 18:01:00,
2013-10-06 14:06:00,80.1,70.5,29.96,WNW,294,0.0,0.0,72,0.00,,,0.00,WUHU216DAVISVP2,2013-10-06 18:06:00,
2013-10-06 14:11:00,79.7,70.1,29.96,WNW,291,0.0,0.0,72,0.00,,,0.00,WUHU216DAVISVP2,2013-10-06 18:11:00,
2013-10-06 14:16:00,80.3,70.7,29.96,SSW,200,0.0,0.0,72,0.00,,,0.00,WUHU216DAVISVP2,2013-10-06 18:16:00,
2013-10-06 14:21:00,80.5,70.9,29.96,SW,233,0.0,0.0,72,0.00,,,0.00,WUHU216DAVISVP2,2013-10-06 18:21:00,
2013-10-06 14:26:00,81.8,72.1,29.95,NE,40,0.0,0.0,72,0.00,,,0.00,WUHU216DAVISVP2,2013-10-06 18:26:00,
2013-10-06 14:31:00,82.0,70.6,29.95,WSW,247,0.0,0.0,68,0.00,,,0.00,WUHU216DAVISVP2,2013-10-06 18:31:00,
2013-10-06 14:36:00,82.0,70.6,29.95,North,357,0.0,0.0,68,0.00,,,0.00,WUHU216DAVISVP2,2013-10-06 18:36:00,
2013-10-06 14:41:00,82.2,70.8,29.94,East,88,0.0,0.0,68,0.00,,,0.00,WUHU216DAVISVP2,2013-10-06 18:41:00,
2013-10-06 14:46:00,82.4,70.8,29.94,East,82,0.0,0.0,68,0.00,,,0.00,WUHU216DAVISVP2,2013-10-06 18:46:00,
2013-10-06 14:52:00,82.2,70.4,29.94,East,83,0.0,0.0,67,0.00,,,0.00,WUHU216DAVISVP2,2013-10-06 18:52:00,
2013-10-06 14:57:00,82.0,70.2,29.94,NW,326,0.0,0.0,67,0.00,,,0.00,WUHU216DAVISVP2,2013-10-06 18:57:00,
2013-10-06 15:02:00,82.4,71.0,29.94,West,274,0.0,0.0,68,0.00,,,0.00,WUHU216DAVISVP2,2013-10-06 19:02:00,
2013-10-06 15:07:00,82.6,70.8,29.94,NW,322,0.0,0.0,67,0.00,,,0.00,WUHU216DAVISVP2,2013-10-06 19:07:00,
2013-10-06 15:12:00,82.8,71.0,29.94,NE,52,0.0,0.0,67,0.00,,,0.00,WUHU216DAVISVP2,2013-10-06 19:12:00,
2013-10-06 15:17:00,83.4,71.6,29.94,NNE,28,0.0,0.0,67,0.00,,,0.00,WUHU216DAVISVP2,2013-10-06 19:17:00,
2013-10-06 15:22:00,83.6,71.7,29.94,ESE,102,0.0,0.0,67,0.00,,,0.00,WUHU216DAVISVP2,2013-10-06 19:22:00,
2013-10-06 15:27:00,84.0,71.7,29.93,South,172,0.0,0.0,66,0.00,,,0.00,WUHU216DAVISVP2,2013-10-06 19:27:00,
2013-10-06 15:32:00,84.0,71.7,29.93,ENE,72,0.0,0.0,66,0.00,,,0.00,WUHU216DAVISVP2,2013-10-06 19:32:00,
2013-10-06 15:37:00,84.0,71.2,29.93,ENE,72,0.0,0.0,65,0.00,,,0.00,WUHU216DAVISVP2,2013-10-06 19:37:00,
2013-10-06 15:42:00,83.6,71.7,29.92,ESE,102,0.0,0.0,67,0.00,,,0.00,WUHU216DAVISVP2,2013-10-06 19:42:00,
2013-10-06 15:47:00,83.6,70.9,29.92,SE,136,0.0,0.0,65,0.00,,,0.00,WUHU216DAVISVP2,2013-10-06 19:47:00,
2013-10-06 15:52:00,83.4,70.7,29.92,SE,136,0.0,0.0,65,0.00,,,0.00,WUHU216DAVISVP2,2013-10-06 19:52:00,
2013-10-06 15:57:00,83.0,70.3,29.92,ENE,69,0.0,0.0,65,0.00,,,0.00,WUHU216DAVISVP2,2013-10-06 19:57:00,
2013-10-06 16:02:00,83.0,70.3,29.92,SSE,165,0.0,0.0,65,0.00,,,0.00,WUHU216DAVISVP2,2013-10-06 20:02:00,
2013-10-06 16:07:00,83.0,70.0,29.92,SSE,157,0.0,0.0,65,0.00,,,0.00,WUHU216DAVISVP2,2013-10-06 20:07:00,
2013-10-06 16:12:00,83.0,69.8,29.91,SW,234,0.0,0.0,64,0.00,,,0.00,WUHU216DAVISVP2,2013-10-06 20:12:00,
2013-10-06 16:17:00,83.0,69.6,29.91,SW,230,0.0,0.0,64,0.00,,,0.00,WUHU216DAVISVP2,2013-10-06 20:17:00,
2013-10-06 16:22:00,83.0,69.8,29.91,North,353,0.0,0.0,64,0.00,,,0.00,WUHU216DAVISVP2,2013-10-06 20:22:00,
2013-10-06 16:27:00,82.6,69.4,29.91,South,189,0.0,0.0,64,0.00,,,0.00,WUHU216DAVISVP2,2013-10-06 20:27:00,
2013-10-06 16:32:00,82.2,69.1,29.91,SSW,205,0.0,0.0,64,0.00,,,0.00,WUHU216DAVISVP2,2013-10-06 20:32:00,
2013-10-06 16:37:00,81.8,68.7,29.91,SSW,212,0.0,0.0,64,0.00,,,0.00,WUHU216DAVISVP2,2013-10-06 20:37:00,
2013-10-06 16:42:00,81.6,69.4,29.91,ENE,65,0.0,0.0,66,0.00,,,0.00,WUHU216DAVISVP2,2013-10-06 20:42:00,
2013-10-06 16:47:00,81.6,69.6,29.91,ENE,65,0.0,0.0,67,0.00,,,0.00,WUHU216DAVISVP2,2013-10-06 20:47:00,
2013-10-06 16:52:00,81.4,69.4,29.91,ENE,65,0.0,0.0,67,0.00,,,0.00,WUHU216DAVISVP2,2013-10-06 20:52:00,
2013-10-06 16:57:00,81.2,69.4,29.91,ENE,66,0.0,0.0,67,0.00,,,0.00,WUHU216DAVISVP2,2013-10-06 20:57:00,
2013-10-06 17:02:00,80.9,69.2,29.91,ENE,65,0.0,0.0,67,0.00,,,0.00,WUHU216DAVISVP2,2013-10-06 21:02:00,
2013-10-06 17:07:00,80.9,69.6,29.91,ENE,65,0.0,0.0,68,0.00,,,0.00,WUHU216DAVISVP2,2013-10-06 21:07:00,
2013-10-06 17:12:00,80.7,69.8,29.91,ENE,65,0.0,0.0,69,0.00,,,0.00,WUHU216DAVISVP2,2013-10-06 21:12:00,
2013-10-06 17:17:00,80.5,69.6,29.91,ENE,62,0.0,0.0,69,0.00,,,0.00,WUHU216DAVISVP2,2013-10-06 21:17:00,
2013-10-06 17:22:00,80.3,69.4,29.91,ENE,62,0.0,0.0,69,0.00,,,0.00,WUHU216DAVISVP2,2013-10-06 21:22:00,
2013-10-06 17:27:00,79.9,69.0,29.91,ENE,59,0.0,0.0,69,0.00,,,0.00,WUHU216DAVISVP2,2013-10-06 21:27:00,
2013-10-06 17:32:00,79.8,69.4,29.91,ENE,59,0.0,0.0,70,0.00,,,0.00,WUHU216DAVISVP2,2013-10-06 21:32:00,
2013-10-06 17:37:00,79.6,69.2,29.91,ENE,75,0.0,0.0,70,0.00,,,0.00,WUHU216DAVISVP2,2013-10-06 21:37:00,
2013-10-06 17:42:00,79.4,69.2,29.90,NE,48,0.0,0.0,71,0.00,,,0.00,WUHU216DAVISVP2,2013-10-06 21:42:00,
2013-10-06 17:47:00,79.0,69.2,29.90,East,100,0.0,0.0,72,0.00,,,0.00,WUHU216DAVISVP2,2013-10-06 21:47:00,
2013-10-06 17:52:00,78.6,69.0,29.90,East,82,0.0,0.0,72,0.00,,,0.00,WUHU216DAVISVP2,2013-10-06 21:52:00,
2013-10-06 17:57:00,78.5,69.3,29.91,South,174,0.0,0.0,73,0.00,,,0.00,WUHU216DAVISVP2,2013-10-06 21:57:00,
2013-10-06 18:02:00,78.3,69.1,29.91,South,174,0.0,0.0,73,0.00,,,0.00,WUHU216DAVISVP2,2013-10-06 22:02:00,
2013-10-06 18:07:00,77.9,69.1,29.91,ENE,75,0.0,0.0,74,0.00,,,0.00,WUHU216DAVISVP2,2013-10-06 22:07:00,
2013-10-06 18:12:00,77.7,68.9,29.91,ENE,75,0.0,0.0,74,0.00,,,0.00,WUHU216DAVISVP2,2013-10-06 22:12:00,
2013-10-06 18:17:00,77.6,68.8,29.91,ENE,64,0.0,0.0,74,0.00,,,0.00,WUHU216DAVISVP2,2013-10-06 22:17:00,
2013-10-06 18:22:00,77.4,69.0,29.91,SW,226,0.0,0.0,75,0.00,,,0.00,WUHU216DAVISVP2,2013-10-06 22:22:00,
2013-10-06 18:27:00,77.2,68.8,29.91,NE,48,0.0,0.0,75,0.00,,,0.00,WUHU216DAVISVP2,2013-10-06 22:27:00,
2013-10-06 18:32:00,76.8,68.4,29.91,NE,51,0.0,0.0,75,0.00,,,0.00,WUHU216DAVISVP2,2013-10-06 22:32:00,
2013-10-06 18:37:00,76.7,68.7,29.91,WSW,241,0.0,0.0,76,0.00,,,0.00,WUHU216DAVISVP2,2013-10-06 22:37:00,
2013-10-06 18:42:00,76.3,68.3,29.91,ESE,121,0.0,0.0,76,0.00,,,0.00,WUHU216DAVISVP2,2013-10-06 22:42:00,
2013-10-06 18:47:00,76.1,68.5,29.91,SSW,209,0.0,0.0,77,0.00,,,0.00,WUHU216DAVISVP2,2013-10-06 22:47:00,
2013-10-06 18:52:00,76.0,68.4,29.92,WNW,289,0.0,0.0,77,0.00,,,0.00,WUHU216DAVISVP2,2013-10-06 22:52:00,
2013-10-06 18:57:00,75.8,68.2,29.92,North,350,0.0,0.0,77,0.00,,,0.00,WUHU216DAVISVP2,2013-10-06 22:57:00,
2013-10-06 19:02:00,75.6,68.0,29.92,North,350,0.0,0.0,77,0.00,,,0.00,WUHU216DAVISVP2,2013-10-06 23:02:00,
2013-10-06 19:07:00,75.4,68.2,29.91,North,350,0.0,0.0,78,0.00,,,0.00,WUHU216DAVISVP2,2013-10-06 23:07:00,
2013-10-06 19:12:00,75.3,68.1,29.91,North,350,0.0,0.0,78,0.00,,,0.00,WUHU216DAVISVP2,2013-10-06 23:12:00,
2013-10-06 19:17:00,75.1,67.9,29.91,North,350,0.0,0.0,78,0.00,,,0.00,WUHU216DAVISVP2,2013-10-06 23:17:00,
2013-10-06 19:22:00,74.9,68.1,29.91,NNW,347,0.0,0.0,79,0.00,,,0.00,WUHU216DAVISVP2,2013-10-06 23:22:00,
2013-10-06 19:27:00,74.7,68.2,29.91,NNW,342,0.0,0.0,80,0.00,,,0.00,WUHU216DAVISVP2,2013-10-06 23:27:00,
2013-10-06 19:32:00,74.7,68.2,29.91,NNW,332,0.0,0.0,80,0.00,,,0.00,WUHU216DAVISVP2,2013-10-06 23:32:00,
2013-10-06 19:37:00,74.6,68.1,29.91,NNW,332,0.0,0.0,80,0.00,,,0.00,WUHU216DAVISVP2,2013-10-06 23:37:00,
2013-10-06 19:42:00,74.6,68.1,29.91,NNW,332,0.0,0.0,80,0.00,,,0.00,WUHU216DAVISVP2,2013-10-06 23:42:00,
2013-10-06 19:47:00,74.4,67.9,29.91,NNW,332,0.0,0.0,80,0.00,,,0.00,WUHU216DAVISVP2,2013-10-06 23:47:00,
2013-10-06 19:52:00,74.4,68.2,29.91,NNW,332,0.0,0.0,81,0.00,,,0.00,WUHU216DAVISVP2,2013-10-06 23:52:00,
2013-10-06 19:57:00,74.4,68.2,29.91,NNW,333,0.0,0.0,81,0.00,,,0.00,WUHU216DAVISVP2,2013-10-06 23:57:00,
2013-10-06 20:02:00,74.4,68.3,29.91,NNW,333,0.0,0.0,81,0.00,,,0.00,WUHU216DAVISVP2,2013-10-07 00:02:00,
2013-10-06 20:07:00,74.2,68.4,29.91,NNW,333,0.0,0.0,82,0.00,,,0.00,WUHU216DAVISVP2,2013-10-07 00:07:00,
2013-10-06 20:12:00,74.2,68.4,29.91,NNW,333,0.0,0.0,82,0.00,,,0.00,WUHU216DAVISVP2,2013-10-07 00:12:00,
2013-10-06 20:17:00,74.0,68.2,29.91,NNW,333,0.0,0.0,82,0.00,,,0.00,WUHU216DAVISVP2,2013-10-07 00:17:00,
2013-10-06 20:22:00,74.0,68.2,29.91,NNW,333,0.0,0.0,82,0.00,,,0.00,WUHU216DAVISVP2,2013-10-07 00:22:00,
2013-10-06 20:27:00,74.0,68.2,29.92,NNW,333,0.0,0.0,82,0.00,,,0.00,WUHU216DAVISVP2,2013-10-07 00:27:00,
2013-10-06 20:32:00,74.0,68.2,29.92,NNW,333,0.0,0.0,82,0.00,,,0.00,WUHU216DAVISVP2,2013-10-07 00:32:00,
2013-10-06 20:37:00,73.9,68.1,29.92,NNW,333,0.0,0.0,82,0.00,,,0.00,WUHU216DAVISVP2,2013-10-07 00:37:00,
2013-10-06 20:42:00,73.7,68.3,29.92,NNW,333,0.0,0.0,83,0.00,,,0.00,WUHU216DAVISVP2,2013-10-07 00:42:00,
2013-10-06 20:47:00,73.7,68.2,29.92,NNW,333,0.0,0.0,83,0.00,,,0.00,WUHU216DAVISVP2,2013-10-07 00:47:00,
2013-10-06 20:53:00,73.5,68.4,29.92,NNW,333,0.0,0.0,84,0.00,,,0.00,WUHU216DAVISVP2,2013-10-07 00:53:00,
2013-10-06 20:58:00,73.5,68.4,29.92,NNW,333,0.0,0.0,84,0.00,,,0.00,WUHU216DAVISVP2,2013-10-07 00:58:00,
2013-10-06 21:06:00,73.3,68.2,29.92,NW,315,0.0,0.0,84,0.00,,,0.00,WUHU216DAVISVP2,2013-10-07 01:06:00,
2013-10-06 21:11:00,73.5,68.4,29.92,NW,315,0.0,0.0,84,0.00,,,0.00,WUHU216DAVISVP2,2013-10-07 01:11:00,
2013-10-06 21:16:00,73.3,68.6,29.92,NW,315,0.0,0.0,85,0.00,,,0.00,WUHU216DAVISVP2,2013-10-07 01:16:00,
2013-10-06 21:21:00,73.5,68.7,29.92,NW,315,0.0,0.0,85,0.00,,,0.00,WUHU216DAVISVP2,2013-10-07 01:21:00,
2013-10-06 21:26:00,73.3,68.5,29.92,NW,315,0.0,0.0,85,0.00,,,0.00,WUHU216DAVISVP2,2013-10-07 01:26:00,
2013-10-06 21:31:00,73.3,68.6,29.92,NW,315,0.0,0.0,85,0.00,,,0.00,WUHU216DAVISVP2,2013-10-07 01:31:00,
2013-10-06 21:37:00,73.3,68.6,29.92,NW,315,0.0,0.0,85,0.00,,,0.00,WUHU216DAVISVP2,2013-10-07 01:37:00,
2013-10-06 21:42:00,73.3,68.5,29.92,NW,315,0.0,0.0,85,0.00,,,0.00,WUHU216DAVISVP2,2013-10-07 01:42:00,
2013-10-06 21:47:00,73.2,68.5,29.92,NW,315,0.0,0.0,85,0.00,,,0.00,WUHU216DAVISVP2,2013-10-07 01:47:00,
2013-10-06 21:52:00,73.3,68.5,29.92,NW,315,0.0,0.0,85,0.00,,,0.00,WUHU216DAVISVP2,2013-10-07 01:52:00,
2013-10-06 21:57:00,73.5,69.1,29.92,NW,315,0.0,0.0,86,0.00,,,0.00,WUHU216DAVISVP2,2013-10-07 01:57:00,
2013-10-06 22:02:00,73.3,68.9,29.92,NW,315,0.0,0.0,86,0.00,,,0.00,WUHU216DAVISVP2,2013-10-07 02:02:00,
2013-10-06 22:07:00,73.7,69.2,29.92,SW,216,0.0,0.0,86,0.00,,,0.00,WUHU216DAVISVP2,2013-10-07 02:07:00,
2013-10-06 22:12:00,73.9,69.5,29.92,SW,216,0.0,0.0,86,0.00,,,0.00,WUHU216DAVISVP2,2013-10-07 02:12:00,
2013-10-06 22:17:00,73.7,69.3,29.92,West,268,0.0,0.0,86,0.00,,,0.00,WUHU216DAVISVP2,2013-10-07 02:17:00,
2013-10-06 22:22:00,73.9,69.5,29.92,West,268,0.0,0.0,86,0.00,,,0.00,WUHU216DAVISVP2,2013-10-07 02:22:00,
2013-10-06 22:27:00,73.9,69.5,29.92,West,268,0.0,0.0,86,0.00,,,0.00,WUHU216DAVISVP2,2013-10-07 02:27:00,
2013-10-06 22:32:00,73.9,69.5,29.92,West,268,0.0,0.0,86,0.00,,,0.00,WUHU216DAVISVP2,2013-10-07 02:32:00,
2013-10-06 22:37:00,73.9,69.5,29.92,WSW,248,0.0,0.0,86,0.00,,,0.00,WUHU216DAVISVP2,2013-10-07 02:37:00,
2013-10-06 22:42:00,74.0,69.6,29.91,SW,226,0.0,0.0,86,0.00,,,0.00,WUHU216DAVISVP2,2013-10-07 02:42:00,
2013-10-06 22:47:00,73.9,69.5,29.91,SW,226,0.0,0.0,86,0.00,,,0.00,WUHU216DAVISVP2,2013-10-07 02:47:00,
2013-10-06 22:52:00,74.0,69.6,29.91,South,181,0.0,0.0,86,0.00,,,0.00,WUHU216DAVISVP2,2013-10-07 02:52:00,
2013-10-06 22:57:00,74.0,69.6,29.91,South,179,0.0,0.0,86,0.00,,,0.00,WUHU216DAVISVP2,2013-10-07 02:57:00,
2013-10-06 23:02:00,74.0,69.6,29.91,South,179,0.0,0.0,86,0.00,,,0.00,WUHU216DAVISVP2,2013-10-07 03:02:00,
2013-10-06 23:07:00,74.0,69.6,29.91,South,179,0.0,0.0,86,0.00,,,0.00,WUHU216DAVISVP2,2013-10-07 03:07:00,
2013-10-06 23:12:00,74.0,69.6,29.91,SE,126,0.0,0.0,86,0.00,,,0.00,WUHU216DAVISVP2,2013-10-07 03:12:00,
2013-10-06 23:17:00,74.0,69.6,29.91,ESE,113,0.0,0.0,86,0.00,,,0.00,WUHU216DAVISVP2,2013-10-07 03:17:00,
2013-10-06 23:22:00,74.0,69.6,29.91,ESE,113,0.0,0.0,86,0.00,,,0.00,WUHU216DAVISVP2,2013-10-07 03:22:00,
2013-10-06 23:27:00,74.0,69.6,29.91,ESE,113,0.0,0.0,86,0.00,,,0.00,WUHU216DAVISVP2,2013-10-07 03:27:00,
2013-10-06 23:32:00,74.0,69.6,29.91,ESE,113,0.0,0.0,86,0.00,,,0.00,WUHU216DAVISVP2,2013-10-07 03:32:00,
2013-10-06 23:37:00,74.0,69.6,29.91,South,178,0.0,0.0,86,0.00,,,0.00,WUHU216DAVISVP2,2013-10-07 03:37:00,
2013-10-06 23:42:00,74.0,69.6,29.91,South,178,0.0,0.0,86,0.00,,,0.00,WUHU216DAVISVP2,2013-10-07 03:42:00,
2013-10-06 23:47:00,73.9,69.5,29.91,South,178,0.0,0.0,86,0.00,,,0.00,WUHU216DAVISVP2,2013-10-07 03:47:00,
2013-10-06 23:52:00,73.9,69.5,29.91,South,178,0.0,0.0,86,0.00,,,0.00,WUHU216DAVISVP2,2013-10-07 03:52:00,
2013-10-06 23:57:00,73.5,69.1,29.90,South,178,0.0,0.0,86,0.00,,,0.00,WUHU216DAVISVP2,2013-10-07 03:57:00,